Location: Unspecified
(0.0000°N, 0.0000°E)
Time: 01:32:58
(UTC+00:00)

Vanguard 2 - All Passes

Search period start: 26 May 2019 00:00
Search period end: 05 June 2019 00:00
Orbit: 552 x 2939 km, 32.9° (Epoch: 25 May)

Date Brightness Start Highest point End Pass type
(mag) Time Alt. Az. Time Alt. Az. Time Alt. Az.
26 May - 01:43:24 10° W 01:47:46 26° SW 01:51:16 10° SSE night (unlit)
26 May - 10:24:24 10° SSW 10:33:47 38° SE 10:47:38 10° E daylight
26 May - 12:32:14 10° WSW 12:45:15 84° NW 13:03:20 10° NE daylight
26 May - 14:44:42 10° W 14:59:08 38° NNW 15:14:50 10° NNE daylight
26 May - 17:05:07 10° NW 17:15:17 17° NNW 17:24:31 10° NNE daylight
26 May - 19:28:44 10° NNW 19:32:26 11° N 19:35:48 10° NNE visible
26 May - 21:40:04 10° NNW 21:46:46 19° NNE 21:51:44 10° ENE visible
26 May - 23:50:01 10° NW 23:57:32 63° NNE 00:02:19 10° ESE night (unlit)
27 May - 02:03:02 10° WSW 02:05:37 14° SW 02:07:54 10° S night (unlit)
27 May - 08:38:14 10° SSE 08:41:19 12° SE 08:44:51 10° SE daylight
27 May - 10:41:48 10° SW 10:51:47 50° SE 11:07:02 10° ENE daylight
27 May - 12:50:29 10° WSW 13:03:36 67° NW 13:21:25 10° NE daylight
27 May - 15:04:27 10° W 15:18:06 30° NNW 15:32:32 10° NNE daylight
27 May - 17:26:34 10° NW 17:35:03 15° NNW 17:42:43 10° NNE daylight
27 May - 19:46:30 10° NNW 19:52:02 13° N 19:56:44 10° NNE visible
27 May - 21:57:20 10° NNW 22:05:33 26° NNE 22:11:09 10° ENE visible
28 May - 00:08:08 10° WNW 00:15:33 77° SW 00:20:16 10° SE night (unlit)
28 May - 08:53:58 10° S 08:59:34 18° SE 09:06:58 10° ESE daylight
28 May - 10:59:24 10° SW 11:09:45 67° SE 11:25:59 10° ENE daylight
28 May - 13:09:02 10° WSW 13:22:07 53° NNW 13:39:21 10° NE daylight
28 May - 15:24:43 10° WNW 15:37:20 25° NNW 15:50:17 10° NNE daylight
28 May - 17:47:33 10° NNW 17:54:57 14° N 18:01:36 10° NNE daylight
28 May - 20:04:00 10° NNW 20:11:26 16° NNE 20:17:18 10° NE visible
28 May - 22:14:52 10° NW 22:24:10 37° NNE 22:30:01 10° E visible
29 May - 00:26:39 10° WNW 00:33:23 43° SW 00:37:53 10° SSE night (unlit)
29 May - 09:10:42 10° SSW 09:17:36 26° SE 09:27:35 10° E daylight
29 May - 11:17:13 10° SW 11:27:49 86° SE 11:44:33 10° NE daylight
29 May - 13:27:58 10° W 13:40:49 42° NNW 13:57:10 10° NE daylight
29 May - 15:45:27 10° WNW 15:56:51 20° NNW 16:08:14 10° NNE daylight
29 May - 18:07:30 10° NNW 18:14:52 14° N 18:21:22 10° NNE visible
29 May - 20:21:28 10° NNW 20:30:37 21° NNE 20:37:19 10° ENE visible
29 May - 22:32:38 10° NW 22:42:33 56° NNE 22:48:28 10° ESE visible
30 May - 00:45:43 10° W 00:51:08 25° SW 00:55:06 10° SSE night (unlit)
30 May - 09:27:50 10° SSW 09:35:30 37° SE 09:47:25 10° ENE daylight
30 May - 11:35:16 10° WSW 11:46:02 75° NW 12:02:49 10° NE daylight
30 May - 13:47:17 10° W 13:59:44 33° NNW 14:14:57 10° NNE daylight
30 May - 16:06:28 10° NW 16:16:38 17° NNW 16:26:32 10° NNE daylight
30 May - 18:26:23 10° NNW 18:34:41 15° N 18:41:44 10° NE visible
30 May - 20:39:00 10° NNW 20:49:36 28° NNE 20:56:48 10° ENE visible
30 May - 22:50:42 10° NW 23:00:43 84° NE 23:06:35 10° ESE visible
31 May - 01:05:41 10° WSW 01:08:55 14° SW 01:11:37 10° S night (unlit)
31 May - 09:45:14 10° SW 09:53:21 53° SE 10:06:41 10° ENE daylight
31 May - 11:53:35 10° WSW 12:04:26 58° NNW 12:20:52 10° NE daylight
31 May - 14:07:05 10° WNW 14:18:55 27° NNW 14:32:44 10° NNE daylight
31 May - 16:27:20 10° NW 16:36:36 16° N 16:45:26 10° NNE daylight
31 May - 18:44:35 10° NNW 18:54:19 18° NNE 19:02:10 10° NE visible
31 May - 20:56:38 10° NW 21:08:22 37° NNE 21:15:48 10° E visible
31 May - 23:09:04 10° WNW 23:18:40 64° SW 23:24:23 10° SE visible
01 Jun - 07:57:58 10° S 08:02:08 16° SE 08:07:27 10° ESE daylight
01 Jun - 10:02:52 10° SW 10:11:15 72° SE 10:25:28 10° ENE daylight
01 Jun - 12:12:14 10° W 12:23:02 45° NNW 12:38:45 10° NE daylight
01 Jun - 14:27:21 10° WNW 14:38:22 22° NNW 14:50:42 10° NNE daylight
01 Jun - 16:47:33 10° NNW 16:56:39 16° N 17:05:07 10° NNE daylight
01 Jun - 19:02:27 10° NNW 19:13:42 23° NNE 19:22:16 10° ENE visible
01 Jun - 21:14:26 10° NW 21:26:55 52° NNE 21:34:25 10° ESE visible
01 Jun - 23:27:52 10° WNW 23:36:28 41° SW 23:41:54 10° SSE visible
02 Jun - 08:14:31 10° SSW 08:20:01 25° SE 08:27:57 10° E daylight
02 Jun - 10:20:44 10° WSW 10:29:19 85° NW 10:43:54 10° NE daylight
02 Jun - 12:31:14 10° W 12:41:52 35° NNW 12:56:33 10° NE daylight
02 Jun - 14:47:57 10° NW 14:58:04 19° NNW 15:08:58 10° NNE daylight
02 Jun - 17:06:52 10° NNW 17:16:38 17° N 17:25:26 10° NE daylight
02 Jun - 19:20:11 10° NNW 19:32:52 29° NNE 19:41:55 10° ENE visible
02 Jun - 21:32:27 10° NW 21:45:15 72° NNE 21:52:41 10° ESE visible
02 Jun - 23:47:11 10° W 23:54:12 26° SW 23:59:04 10° SSE visible
03 Jun - 08:31:36 10° SSW 08:37:47 37° SE 08:47:33 10° ENE daylight
03 Jun - 10:38:51 10° WSW 10:47:35 64° NNW 11:02:03 10° NE daylight
03 Jun - 12:50:42 10° WNW 13:00:56 28° NNW 13:14:20 10° NNE daylight
03 Jun - 15:08:36 10° NW 15:18:00 17° N 15:27:47 10° NNE daylight
03 Jun - 17:25:27 10° NNW 17:36:28 19° NNE 17:45:58 10° NE daylight
03 Jun - 19:37:56 10° NW 19:51:47 37° NNE 20:01:07 10° E visible
03 Jun - 21:50:42 10° WNW 22:03:22 83° SW 22:10:39 10° SE visible
04 Jun - 00:07:22 10° WSW 00:12:00 16° SW 00:15:39 10° S night (unlit)
04 Jun - 08:49:02 10° SW 08:55:34 56° SE 09:06:35 10° ENE daylight
04 Jun - 10:57:17 10° W 11:06:02 47° NNW 11:20:00 10° NE daylight
04 Jun - 13:10:36 10° WNW 13:20:14 22° NNW 13:32:12 10° NNE daylight
04 Jun - 15:28:52 10° NNW 15:38:04 16° N 15:47:23 10° NNE daylight
04 Jun - 17:43:34 10° NNW 17:56:02 23° NNE 18:06:19 10° ENE daylight
04 Jun - 19:55:44 10° NW 20:10:29 49° NNE 20:19:54 10° E visible
04 Jun - 22:09:19 10° WNW 22:21:16 58° SW 22:28:21 10° SE visible
